Hourly Weather Roundup
Issued by NWS Central Illinois

Home | Current Version | Previous Version | Text Only | Print | Product List | Glossary On
Versions: 1 2 3 4 5 6 7 8 9 10 11 12 13 14 15 16 17 18 19 20 21 22 23 24 25 26 27 28 29 30 31 32 33 34 35 36 37 38 39 40 41 42 43 44 45 46 47 48 49 50
000
NZUS43 KILX 271610
HWRILX

AREA WEATHER ROUNDUP
NATIONAL WEATHER SERVICE, LINCOLN IL
1100 AM CDT WED MAY 27 2015


CITY           SKY/WX    TMP DP  RH WIND       PRES   REMARKS
BLOOMINGTON    LGT RAIN  71  64  78 W14       30.03S
CHAMPAIGN      CLOUDY    74  65  73 SW21      30.04R
DANVILLE       CLOUDY    72  65  79 SW13      30.01R
DECATUR        CLOUDY    73  64  73 SW16      30.04R
EFFINGHAM      CLOUDY    70  57  64 S6        30.08S
FLORA          PTSUNNY   69  61  77 SW6       30.07F
GALESBURG      PTSUNNY   69  59  69 W10G16    30.03R
JACKSONVILLE   CLOUDY    74  62  65 W10       30.05R
LACON          PTSUNNY   71  58  64 W10G16    30.00R
LAWRENCEVILLE  PTSUNNY   73  62  68 W13       30.10S
LITCHFIELD     CLOUDY    72  62  71 SW12      30.05F
$$


CITY           SKY/WX    TMP DP  RH WIND       PRES   REMARKS
LINCOLN        CLOUDY    74  65  74 SW6       30.01R
MACOMB         MOSUNNY   69  59  70 W10       30.06R
MATTOON        CLOUDY    72  61  68 SW14G21   30.05F
MT CARMEL AP   CLOUDY    73  61  64 SW7       30.09F
OLNEY-NOBLE AP CLOUDY    70  63  78 S3        30.07F
PARIS          PTSUNNY   78  63  60 SW17G24   30.06F HX  80
PEORIA         CLOUDY    74  61  63 W9        30.02R
PONTIAC        CLOUDY    74  61  63 W16G23    30.01S
RANTOUL        DRIZZLE   71  67  89 SW15G24   30.03S
ROBINSON       PTSUNNY   75  61  62 W17G24    30.10R
SPRINGFIELD    CLOUDY    74  64  71 SW14      30.04R
TAYLORVILLE    CLOUDY    70  64  83 SW12      30.05R
$$

...REGIONAL REPORTS...


CITY           SKY/WX    TMP DP  RH WIND       PRES   REMARKS
CHICAGO O`HARE PTSUNNY   69  58  67 W15G23    29.95R
KANKAKEE       PTSUNNY   72  63  72 W17       30.00R
MOLINE         MOSUNNY   71  58  63 W10       30.02R
MOUNT VERNON   CLOUDY    70  63  78 W6        30.08R
PITTSFIELD     MOSUNNY   73  60  64 W12G17    30.06S
QUINCY         MOSUNNY   70  57  63 NW15      30.05R
ROCKFORD       PTSUNNY   66  57  72 W18G24    29.99R
$$


CITY           SKY/WX    TMP DP  RH WIND       PRES   REMARKS
BURLINGTON     PTSUNNY   69  59  70 NW9       30.04R
CEDAR RAPIDS   MOSUNNY   67  59  75 SW7       30.03R
DES MOINES     SUNNY     74  56  53 CALM      30.04R
KIRKSVILLE     SUNNY     73  58  59 W8        30.08R
OTTUMWA        SUNNY     70  60  70 NW10      30.05R
ST LOUIS       PTSUNNY   77  62  59 W12       30.07R
$$


CITY           SKY/WX    TMP DP  RH WIND       PRES   REMARKS
TERRE HAUTE    PTSUNNY   77  64  64 W17G25    30.07R
EVANSVILLE     LGT RAIN  71  63  75 NW7       30.12S
INDIANAPOLIS   MOSUNNY   80  61  52 SW16      30.04F HX  81
LAFAYETTE      PTSUNNY   74  64  71 SW10G25   30.01S
MADISON        PTSUNNY   64  56  75 NW10      29.96R
MILWAUKEE      PTSUNNY   69  57  65 W12       29.91R
$$




USA.gov is the U.S. government's official web portal to all federal, state and local government web resources and services.